Weather History for Columbia Owens, SC

Change the Weather History Date:

Sunday, December 1, 2013

  Actual Average Record
Temperature  
Mean Temperature 51 °F 52 °F  
Max Temperature 61 °F 63 °F 77 °F (1998)
Min Temperature 41 °F 41 °F 28 °F (1999)
Degree Days  
Heating Degree Days 14 14  
Month to date heating degree days 14 14  
Since 1 July heating degree days 428 385  
Cooling Degree Days 0 0  
Month to date cooling degree days 0 0  
Year to date cooling degree days 2223 2256  
Growing Degree Days 1 (Base 50)    
Moisture  
Dew Point 39 °F    
Average Humidity 66    
Maximum Humidity 86    
Minimum Humidity 46    
Precipitation  
Precipitation 0.00 in 0.11 in 0.34 in (2010)
Month to date precipitation 0.00 0.11  
Year to date precipitation 46.87 42.31  
Sea Level Pressure  
Sea Level Pressure 30.20 in    
Wind  
Wind Speed 1 mph (SE)    
Max Wind Speed 6 mph    
Max Gust Speed 9 mph    
Visibility 10 miles    
Events      
T = Trace of Precipitation, MM = Missing Value Source: NWS Daily Summary

Daily Weather History Graph

Daily Weather History Graph

Search for Another Location

Airport:

Trip Planner

Search our weather history database for the weather conditions in past years. The results will help you decide how hot, cold, wet, or windy it might be!

Date:

Astronomy

Dec. 01, 2013 Rise Set
Actual Time 7:11 AM EST 5:14 PM EST
Civil Twilight 6:44 AM EST 5:42 PM EST
Nautical Twilight 6:13 AM EST 6:13 PM EST
Astronomical Twilight 5:42 AM EST 6:43 PM EST
Moon 5:31 AM EST (12/1) 4:20 PM EST (12/1)
Length of Visible Light 10h 58m
Length of Day
10h 03m
Waning Crescent, 2% of the Moon is Illuminated
Dec 1
Waning Crescent
Dec 2
New
Dec 9
First Quarter
Dec 17
Full
Dec 25
Last Quarter

Hourly Weather History & Observations

Time (EST) Temp. Windchill Dew Point Humidity Pressure Visibility Wind Dir Wind Speed Gust Speed Precip Events Conditions
12:53 AM 42.1 °F - 36.0 °F 79% 30.35 in 10.0 mi Calm Calm - N/A   Partly Cloudy
1:53 AM 42.1 °F - 36.0 °F 79% 30.34 in 10.0 mi Calm Calm - N/A   Mostly Cloudy
2:53 AM 44.1 °F - 35.1 °F 71% 30.32 in 10.0 mi Calm Calm - N/A   Overcast
3:53 AM 45.0 °F - 34.0 °F 65% 30.31 in 10.0 mi Calm Calm - N/A   Overcast
4:53 AM 44.1 °F - 34.0 °F 68% 30.30 in 10.0 mi Calm Calm - N/A   Overcast
5:53 AM 44.1 °F 42.5 °F 34.0 °F 68% 30.29 in 10.0 mi Variable 3.5 mph - N/A   Mostly Cloudy
6:53 AM 44.1 °F - 34.0 °F 68% 30.30 in 10.0 mi Calm Calm - N/A   Mostly Cloudy
7:53 AM 42.1 °F - 36.0 °F 79% 30.29 in 10.0 mi Calm Calm - N/A   Clear
8:53 AM 46.0 °F - 35.1 °F 66% 30.29 in 10.0 mi Calm Calm - N/A   Partly Cloudy
9:53 AM 48.9 °F - 35.1 °F 59% 30.30 in 10.0 mi Calm Calm - N/A   Partly Cloudy
10:53 AM 53.1 °F - 37.0 °F 55% 30.28 in 10.0 mi East 3.5 mph - N/A   Scattered Clouds
11:53 AM 55.9 °F - 37.9 °F 51% 30.24 in 10.0 mi Calm Calm - N/A   Overcast
12:53 PM 57.9 °F - 39.0 °F 49% 30.19 in 10.0 mi Calm Calm - N/A   Scattered Clouds
1:53 PM 60.1 °F - 39.9 °F 47% 30.15 in 10.0 mi Variable 3.5 mph - N/A   Partly Cloudy
2:53 PM 60.1 °F - 39.9 °F 47% 30.13 in 10.0 mi South 4.6 mph - N/A   Mostly Cloudy
3:53 PM 60.1 °F - 41.0 °F 49% 30.11 in 10.0 mi Calm Calm - N/A   Mostly Cloudy
4:53 PM 60.1 °F - 43.0 °F 53% 30.11 in 10.0 mi Calm Calm - N/A   Overcast
5:53 PM 57.0 °F - 44.1 °F 62% 30.09 in 10.0 mi Calm Calm - N/A   Mostly Cloudy
6:53 PM 53.1 °F - 45.0 °F 74% 30.09 in 10.0 mi Calm Calm - N/A   Mostly Cloudy
7:53 PM 51.1 °F - 44.1 °F 77% 30.08 in 10.0 mi Calm Calm - N/A   Partly Cloudy
8:53 PM 50.0 °F - 44.1 °F 80% 30.07 in 10.0 mi Calm Calm - N/A   Clear
9:53 PM 48.9 °F - 44.1 °F 83% 30.06 in 10.0 mi Calm Calm - N/A   Mostly Cloudy
10:53 PM 51.1 °F - 45.0 °F 80% 30.06 in 10.0 mi Calm Calm - N/A   Overcast
11:53 PM 51.1 °F - 46.0 °F 83% 30.04 in 10.0 mi Calm Calm - N/A   Overcast